Weather History for Nuiqsut, AK

Change the Weather History Date:

Tuesday, January 1, 2013

  Actual Average (PAKU) Record (PAKU)
Temperature  
Mean Temperature -4 °F -  
Max Temperature 1 °F -4 °F 19 °F (1993)
Min Temperature -9 °F -14 °F -46 °F (1984)
Degree Days  
Heating Degree Days 69    
Moisture  
Dew Point -10 °F    
Average Humidity 76    
Maximum Humidity 92    
Minimum Humidity 66    
Precipitation  
Precipitation 0.00 in - - ()
Sea Level Pressure  
Sea Level Pressure 29.86 in    
Wind  
Wind Speed 18 mph (NE)    
Max Wind Speed 20 mph    
Max Gust Speed 26 mph    
Visibility 3 miles    
Events      
Averages and records for this station are not official NWS values.
T = Trace of Precipitation, MM = Missing Value Source: NWS Daily Summary

Daily Weather History Graph

Daily Weather History Graph

Search for Another Location

Airport:

Trip Planner

Search our weather history database for the weather conditions in past years. The results will help you decide how hot, cold, wet, or windy it might be!

Date:

Astronomy

Dec. 31, 1969 Rise Set
Actual Time Sun does not rise Sun does not rise
Civil Twilight 10:56 AM AKST 3:19 PM AKST
Nautical Twilight 9:10 AM AKST 5:05 PM AKST
Astronomical Twilight 7:50 AM AKST 6:25 PM AKST
Moon 9:57 PM AKST (1/1) 11:32 AM AKST (1/1)
Length of Visible Light 4h 22m
Length of Day
0h 00m
Waning Gibbous, 82% of the Moon is Illuminated
Jan 1
Waning Gibbous
Jan 4
Last Quarter
Jan 11
New
Jan 18
First Quarter
Jan 26
Full

Hourly Weather History & Observations

Time (AKST) Temp. Windchill Dew Point Humidity Pressure Visibility Wind Dir Wind Speed Gust Speed Precip Events Conditions
12:12 AM -7.6 °F -30.5 °F -11.2 °F 84% 30.11 in 4.0 mi ENE 17.3 mph 25.3 mph N/A   Overcast
12:27 AM -7.6 °F -31.7 °F -11.2 °F 84% 30.10 in 2.5 mi ENE 19.6 mph 26.5 mph N/A   Mostly Cloudy
12:43 AM -7.6 °F -31.1 °F -11.2 °F 84% 30.10 in 3.0 mi NE 18.4 mph - N/A   Mostly Cloudy
12:53 AM -8.0 °F -31.6 °F -11.0 °F 86% 30.10 in 3.0 mi NE 18.4 mph - N/A   Mostly Cloudy
1:35 AM -7.6 °F -30.5 °F -11.2 °F 84% 30.10 in 4.0 mi ENE 17.3 mph - N/A   Mostly Cloudy
1:53 AM -8.0 °F -31.0 °F -11.9 °F 83% 30.11 in 7.0 mi ENE 17.3 mph - N/A   Scattered Clouds
3:53 AM -9.0 °F -32.4 °F -13.0 °F 83% 30.10 in 10.0 mi NE 17.3 mph - N/A   Clear
4:53 AM -9.0 °F -33.6 °F -13.0 °F 83% 30.07 in 6.0 mi NE 19.6 mph - N/A   Clear
5:53 AM -9.0 °F -31.7 °F -13.0 °F 83% 30.05 in 6.0 mi NE 16.1 mph - N/A   Clear
6:53 AM -9.0 °F - -13.0 °F 83% 30.03 in - North - - N/A   Unknown
7:25 AM -9.4 °F - -13.0 °F 84% 30.01 in 3.0 mi North - - N/A   Scattered Clouds
7:33 AM -9.4 °F - -13.0 °F 84% 30.01 in 3.0 mi North - - N/A   Mostly Cloudy
7:53 AM -9.0 °F - -13.0 °F 83% 30.02 in 3.0 mi North - - N/A   Mostly Cloudy
8:26 AM -9.4 °F - -13.0 °F 84% 30.00 in 4.0 mi North - - N/A   Partly Cloudy
8:53 AM -9.0 °F - -13.0 °F 83% 29.99 in 3.0 mi North - - N/A   Scattered Clouds
9:00 AM -9.4 °F - -13.0 °F 84% 29.98 in 2.5 mi North - - N/A   Scattered Clouds
9:05 AM -9.4 °F - -13.0 °F 84% 29.98 in 3.0 mi North - - N/A   Mostly Cloudy
9:22 AM -9.4 °F - -11.2 °F 92% 29.98 in 2.0 mi North - - N/A   Overcast
9:53 AM -9.0 °F - -11.9 °F 87% 29.96 in 3.0 mi North - - N/A   Overcast
10:21 AM -7.6 °F - -11.2 °F 84% 29.93 in 2.0 mi North - - N/A   Haze
10:41 AM -4.0 °F - -11.2 °F 71% 29.93 in 1.5 mi North - - N/A   Haze
10:53 AM -4.0 °F - -11.9 °F 69% 29.92 in 1.5 mi North - - N/A   Haze
11:53 AM -2.9 °F - -9.9 °F 72% 29.90 in 1.2 mi North - - N/A   Haze
12:26 PM -2.2 °F - -9.4 °F 71% 29.90 in 2.0 mi North - - N/A   Haze
12:36 PM -2.2 °F - -9.4 °F 71% 29.88 in 1.5 mi North - - N/A   Haze
12:53 PM -2.0 °F - -9.9 °F 69% 29.86 in 1.2 mi North - - N/A   Haze
1:53 PM -2.0 °F - -9.0 °F 72% 29.83 in 1.2 mi North - - N/A   Haze
2:53 PM -0.0 °F - -8.0 °F 69% 29.80 in 1.2 mi North - - 0.00 in   Overcast
3:27 PM -0.4 °F - -7.6 °F 72% 29.76 in 0.8 mi North - - 0.00 in   Overcast
3:53 PM -0.0 °F - -8.0 °F 69% 29.75 in 0.5 mi North - - 0.00 in   Unknown
4:22 PM -0.4 °F - -7.6 °F 72% 29.74 in - North - - 0.00 in   Unknown
4:36 PM -0.4 °F - -7.6 °F 72% 29.74 in 0.8 mi North - - 0.00 in   Unknown
4:53 PM -0.0 °F - -8.0 °F 69% 29.74 in 0.8 mi North - - 0.00 in   Unknown
5:37 PM -0.4 °F - -7.6 °F 72% 29.71 in 1.0 mi North - - 0.00 in   Unknown
5:53 PM 1.0 °F - -8.0 °F 66% 29.70 in 1.0 mi North - - 0.00 in   Overcast
6:53 PM 1.9 °F - -7.1 °F 66% 29.68 in 1.0 mi North - - 0.00 in   Overcast
7:49 PM -0.4 °F - -7.6 °F 72% 29.63 in 2.0 mi North - - 0.00 in   Haze
7:53 PM 1.9 °F - -7.1 °F 66% 29.63 in 1.2 mi North - - 0.00 in   Overcast
8:07 PM -0.4 °F - -7.6 °F 72% 29.61 in 3.0 mi North - - 0.00 in   Haze
8:14 PM -0.4 °F - -7.6 °F 72% 29.62 in 3.0 mi North - - 0.00 in   Haze
8:53 PM -2.0 °F - -8.0 °F 76% 29.60 in 5.0 mi North - - 0.00 in   Haze
9:03 PM -0.4 °F - -7.6 °F 72% 29.60 in 5.0 mi North - - N/A   Haze
9:45 PM 1.4 °F - -7.6 °F 66% 29.60 in 9.0 mi North - - N/A   Mostly Cloudy
9:53 PM -0.0 °F - -8.0 °F 69% 29.61 in 10.0 mi North - - N/A   Overcast
10:53 PM -0.9 °F - -8.0 °F 72% 29.60 in 9.0 mi North - - 0.00 in   Overcast
11:53 PM -0.9 °F - -8.0 °F 72% 29.60 in 7.0 mi North - - N/A   Overcast